Regional Weather Roundup
Issued by NWS Northern Indiana

Home | Current Version | Previous Version | Text Only | Print | Product List | Glossary Off
Versions: 1 2 3 4 5 6 7 8 9 10 11 12 13 14 15 16 17 18 19 20 21 22 23 24 25 26 27 28 29 30 31 32 33 34 35 36 37 38 39 40 41 42 43 44 45 46 47 48 49 50

000
ASUS43 KIWX 281610
RWRIWX

KIWX WEATHER ROUNDUP
NATIONAL WEATHER SERVICE NORTHERN INDIANA
1200 PM EDT FRI AUG 28 2015

NOTE: "FAIR" INDICATES FEW OR NO CLOUDS BELOW 12,000 FEET WITH NO
SIGNIFICANT WEATHER AND/OR OBSTRUCTIONS TO VISIBILITY.

* THESE STATIONS ARE NOT UNDER NWS QUALITY CONTROL. THEY ALSO MAY NOT
  REPORT WEATHER SUCH AS PRECIPITATION OR FOG.

INZ001>027-281700-
NORTHERN INDIANA

CITY           SKY/WX    TMP DP  RH WIND       PRES   REMARKS
GARY*          CLOUDY    73  59  60 S5        30.16F
VALPARAISO     PTSUNNY   72  61  68 S5        30.17F
MICHIGAN CITY* PTSUNNY   72  61  68 S6        30.17S
LAPORTE*       PTSUNNY   72  63  73 S5        30.18F
KNOX*          PTSUNNY   72  59  64 SW7       30.17S
SOUTH BEND     MOSUNNY   71  60  68 S6        30.18S
ELKHART*       SUNNY     72  59  64 S5        30.19S
GOSHEN         SUNNY     73  59  61 SW10      30.19R
MONTICELLO*    PTSUNNY   74  61  63 SW9       30.19R
LOGANSPORT*    MOSUNNY   73  52  46 SW7       30.20R
ROCHESTER*     MOSUNNY   77  59  53 SW9       30.19S
WARSAW*        SUNNY     72  59  64 SW7       30.20R
ANGOLA*        MOSUNNY   72  63  73 S7        30.20S
FORT WAYNE     MOSUNNY   73  59  61 SW8       30.21S
HUNTINGTON*    SUNNY     74  53  47 W8        30.20S
PERU/GRISSOM   SUNNY     75  59  57 S9        30.19R
MARION*        SUNNY     73  48  40 S6        30.21S

$$
INZ028>050-281700-
CENTRAL INDIANA

CITY           SKY/WX    TMP DP  RH WIND       PRES   REMARKS
LAFAYETTE      PTSUNNY   74  57  55 SW7       30.18R
KOKOMO*        SUNNY     75  57  53 SW10      30.21R
MUNCIE*        SUNNY     72  56  57 SW5       30.20S
INDIANAPOLIS   MOSUNNY   75  54  47 SE7       30.17F

$$
MIZ043>046-050>051-056>058-064>065-071>073-077>080-281700-
SOUTHWEST LOWER MICHIGAN

CITY           SKY/WX    TMP DP  RH WIND       PRES   REMARKS
BATTLE CREEK   SUNNY     72  59  63 SW8       30.20S
BENTON HARBOR  MOSUNNY   72  61  68 VRB3      30.17S
COLDWATER*     MOSUNNY   71  60  67 S5        30.20R
HILLSDALE*     MOSUNNY   71  60  69 S3        30.21S
HOLLAND        SUNNY     73  61  65 S3        30.18S
GRAND RAPIDS   PTSUNNY   71  59  65 SW7       30.18S
KALAMAZOO      SUNNY     71  59  65 S7        30.19S
STURGIS*       SUNNY     72  63  73 SW7       30.19R
THREE RIVERS*  FAIR      72  60  66 S6        30.19S

$$
OHZ001>008-015>018-024>025-281700-
NORTHWEST OHIO

CITY           SKY/WX    TMP DP  RH WIND       PRES   REMARKS
WAUSEON*       FAIR      72  61  68 CALM      30.21F
DEFIANCE       SUNNY     73  59  61 VRB5      30.21F
FINDLAY        SUNNY     74  57  55 W3        30.21R
TOLEDO EXPRESS SUNNY     71  58  63 S6        30.21R
TOLEDO METCALF SUNNY    N/A N/A N/A VRB5      30.22S
LIMA           SUNNY     72  57  59 S3        30.21S

$$
AND FOR LAKE MICHIGAN COASTAL AND OPEN LAKE BUOY OBSERVATIONS

STATION/POSITION TEMP    WIND        PRES    VSBY  WAVE
                 AIR SEA DIR/SP/G                  HT/PER
                 (F)     (DEG/KT/KT) (MB)    (MI)  (FT/S)
CALUMET HARBOR    69     200/  5/  7   N/A
MICHIGAN CITY     68     170/  6/  7   N/A
BURNS HARBOR      69     200/  6/  7 1022.0R
SAINT JOSEPH      74     210/  4/  4 1021.7F
SOUTH LAKE BUOY   67 68  180/  8/  8 1020.9S         1/ 4
4 MI NW BRIDGMAN  69 71  240/  2/  4   N/A           1
MICHIGAN CITY     70 70  200/  4/  6   N/A           1

$$
&&



USA.gov is the U.S. government's official web portal to all federal, state and local government web resources and services.